SCP
-0 -0 -0 0 0 -0 -0 -0 -0 0 0 0 0 -0 -0 0 0 0 0 0 0 0 0 0 0 0 0
-0 -0 -0 -0 0 0 -0 -0 -0 0 0 0 0 -0 0 -0 0 0 0 0 0 0 0 0 0 0 0
-0 -0 -0 -0 -0 -0 0 -0 -0 -0 0 0 0 -0 0 -0 0 0 0 0 0 0 0 0 0 0 0
0 -0 0 -0 -0 -0 -0 -0 -0 -0 0 0 0 -0 0 0 0 0 0 0 0 0 0 0 0 0 0
0 0 0 -0 -0 0 -0 -0 -0 -0 0 0 0 -0 -0 0 0 0 0 0 0 0 0 0 0 0 0
0 0 0 0 0 0 0 -0 -0 -0 -0 0 0 0 0 -0 0 0 0 0 0 0 0 0 0 0 0
0 0 0 0 0 0 0 0 0 0 0 0 0 0 0 0 0 0 0 0 0 0 0 0 0 0 0
0 0 0 0 0 0 0 0 0 0 0 -0 0 0 0 0 0 0 0 0 0 0 0 0 0 0 0
0 0 0 0 0 0 0 -0 0 0 0 -0 0 0 0 0 0 0 0 0 0 0 0 0 0 0 0
0 0 0 0 0 0 0 0 0 0 -0 -0 -0 0 0 0 0 0 0 0 0 0 0 0 0 0 0
0 0 0 0 0 0 0 0 -0 0 0 -0 0 0 0 0 0 0 0 0 0 0 0 0 0 0 0
0 0 -0 -0 -0 -0 -0 0 0 -0 0 -0 0 0 0 0 0 0 0 0 0 0 0 0 0 0 0
0 -0 -0 -0 -0 -0 -0 0 0 0 -0 0 0 0 0 0 0 0 0 0 0 0 0 0 0 0 0
-0 -0 -0 -0 -0 -0 -0 0 -0 -0 -0 0 0 0 0 0 0 0 0 0 0 0 0 0 0 0 0
0 -0 -0 -0 -0 -0 -0 -0 -0 -0 -0 -0 0 0 0 0 0 0 0 0 0 0 0 0 0 0 0
0 -0 -0 -0 -0 -0 -0 -0 -0 -0 -0 0 0 0 0 0 0 0 0 0 0 0 0 0 0 0 0
0 -0 -0 -0 -0 -0 -0 0 -0 0 0 0 0 0 0 0 0 0 0 0 0 0 0 0 0 0 0
Wind_Speed_500mb
89 88 83 85 86 90 98 94 92 82 79 82 83 95 84 75 41 71 94 123 110 97 95 89 79 75 73
90 91 81 87 87 90 98 96 93 90 84 82 83 101 91 81 85 47 114 121 105 104 101 90 83 76 80
92 87 75 81 96 90 91 101 91 89 89 84 86 94 96 79 73 56 123 121 118 111 102 94 86 88 82
89 80 83 87 75 81 101 91 102 99 92 86 86 86 95 88 81 59 148 135 125 115 108 101 97 96 82
93 91 83 75 76 86 86 102 110 100 99 89 87 80 94 86 78 82 159 142 130 126 117 113 108 98 79
81 85 94 78 69 90 96 89 104 93 73 104 94 84 93 99 82 104 161 151 141 134 124 116 109 93 81
78 82 84 83 87 84 89 89 93 102 96 107 97 91 65 89 82 110 161 156 145 134 127 120 100 88 84
67 78 81 85 82 84 91 98 102 105 89 89 97 90 62 68 111 144 173 153 147 138 130 118 98 90 86
72 76 82 81 78 77 90 83 92 100 90 76 88 77 55 64 148 163 165 165 155 141 132 109 102 92 88
80 76 79 90 81 78 86 88 88 98 77 42 66 66 17 57 134 154 155 166 145 137 122 117 109 103 93
83 84 91 107 109 100 88 76 76 84 81 66 82 67 47 34 90 114 150 145 135 120 115 113 106 104 101
79 96 108 112 106 95 87 84 77 82 77 68 82 63 56 45 73 98 127 134 124 122 116 109 101 100 95
93 102 108 111 100 97 88 84 83 80 78 71 74 64 70 63 49 113 130 122 124 127 121 118 114 107 96
104 112 107 100 98 88 86 82 82 80 70 61 69 64 74 76 58 69 137 116 135 130 124 117 111 103 96
99 95 93 91 88 77 79 76 75 76 66 57 66 65 77 79 63 74 96 114 141 137 128 117 110 101 95
81 83 85 83 80 76 76 74 77 74 63 68 55 69 80 71 73 84 75 102 131 133 129 126 112 100 96
75 79 80 79 76 77 75 73 76 73 61 68 69 84 80 76 84 96 87 105 122 122 122 123 123 108 95
Wind_Direction_500mb
316 319 317 318 316 316 316 317 314 309 305 297 274 264 266 267 271 222 216 202 194 189 194 186 184 179 179
315 317 314 317 315 314 313 315 314 311 307 295 287 268 266 268 248 246 206 198 195 191 190 186 183 178 183
310 311 312 312 315 313 310 312 313 310 309 303 296 275 261 274 247 242 212 204 196 191 189 185 181 179 188
306 305 306 314 313 310 311 310 311 311 309 308 304 279 251 259 241 239 209 202 195 191 188 185 181 185 183
300 302 305 309 312 309 309 308 308 312 313 309 308 281 255 258 246 220 204 198 193 191 188 186 185 185 173
293 293 299 303 300 301 305 307 308 308 307 309 309 296 250 259 244 210 199 196 191 186 185 187 183 177 178
282 284 290 292 298 301 300 302 298 300 304 303 307 305 261 259 236 210 200 195 188 185 186 185 178 175 182
285 289 290 294 298 298 298 296 294 293 300 298 305 304 289 249 219 204 200 193 187 187 185 182 179 182 186
279 278 278 284 286 289 285 292 291 289 294 294 304 307 274 217 191 195 198 191 187 185 184 178 178 181 187
288 287 289 287 285 280 281 281 281 288 294 282 294 307 241 189 174 182 194 187 184 183 181 179 176 183 180
283 277 275 281 285 289 291 288 280 274 283 279 283 296 253 198 165 165 169 172 174 176 177 177 181 187 178
266 274 277 281 289 291 292 287 278 272 276 271 271 277 263 209 160 158 160 171 175 173 174 181 187 185 183
274 274 278 288 290 288 288 286 282 276 268 261 258 258 258 211 185 160 163 171 175 173 176 183 182 180 178
281 283 286 287 287 288 288 287 286 279 268 263 248 246 248 213 198 177 172 166 178 176 179 181 182 181 183
281 280 282 284 286 289 285 285 279 277 275 259 257 242 235 209 198 189 173 173 177 178 182 179 181 179 184
281 281 282 285 289 286 281 279 276 272 258 257 256 216 212 202 206 187 183 172 174 178 182 177 176 182 187
283 284 285 287 286 280 278 277 274 270 252 248 225 203 185 176 187 192 181 172 173 173 179 179 174 181 181
Wind_Speed_850mb
89 88 83 85 86 90 98 94 92 82 79 82 83 95 84 75 41 71 94 123 110 97 95 89 79 75 73
90 91 81 87 87 90 98 96 93 90 84 82 83 101 91 81 85 47 114 121 105 104 101 90 83 76 80
92 87 75 81 96 90 91 101 91 89 89 84 86 94 96 79 73 56 123 121 118 111 102 94 86 88 82
89 80 83 87 75 81 101 91 102 99 92 86 86 86 95 88 81 59 148 135 125 115 108 101 97 96 82
93 91 83 75 76 86 86 102 110 100 99 89 87 80 94 86 78 82 159 142 130 126 117 113 108 98 79
81 85 94 78 69 90 96 89 104 93 73 104 94 84 93 99 82 104 161 151 141 134 124 116 109 93 81
78 82 84 83 87 84 89 89 93 102 96 107 97 91 65 89 82 110 161 156 145 134 127 120 100 88 84
67 78 81 85 82 84 91 98 102 105 89 89 97 90 62 68 111 144 173 153 147 138 130 118 98 90 86
72 76 82 81 78 77 90 83 92 100 90 76 88 77 55 64 148 163 165 165 155 141 132 109 102 92 88
80 76 79 90 81 78 86 88 88 98 77 42 66 66 17 57 134 154 155 166 145 137 122 117 109 103 93
83 84 91 107 109 100 88 76 76 84 81 66 82 67 47 34 90 114 150 145 135 120 115 113 106 104 101
79 96 108 112 106 95 87 84 77 82 77 68 82 63 56 45 73 98 127 134 124 122 116 109 101 100 95
93 102 108 111 100 97 88 84 83 80 78 71 74 64 70 63 49 113 130 122 124 127 121 118 114 107 96
104 112 107 100 98 88 86 82 82 80 70 61 69 64 74 76 58 69 137 116 135 130 124 117 111 103 96
99 95 93 91 88 77 79 76 75 76 66 57 66 65 77 79 63 74 96 114 141 137 128 117 110 101 95
81 83 85 83 80 76 76 74 77 74 63 68 55 69 80 71 73 84 75 102 131 133 129 126 112 100 96
75 79 80 79 76 77 75 73 76 73 61 68 69 84 80 76 84 96 87 105 122 122 122 123 123 108 95
Wind_Direction_850mb
316 319 317 318 316 316 316 317 314 309 305 297 274 264 266 267 271 222 216 202 194 189 194 186 184 179 179
315 317 314 317 315 314 313 315 314 311 307 295 287 268 266 268 248 246 206 198 195 191 190 186 183 178 183
310 311 312 312 315 313 310 312 313 310 309 303 296 275 261 274 247 242 212 204 196 191 189 185 181 179 188
306 305 306 314 313 310 311 310 311 311 309 308 304 279 251 259 241 239 209 202 195 191 188 185 181 185 183
300 302 305 309 312 309 309 308 308 312 313 309 308 281 255 258 246 220 204 198 193 191 188 186 185 185 173
293 293 299 303 300 301 305 307 308 308 307 309 309 296 250 259 244 210 199 196 191 186 185 187 183 177 178
282 284 290 292 298 301 300 302 298 300 304 303 307 305 261 259 236 210 200 195 188 185 186 185 178 175 182
285 289 290 294 298 298 298 296 294 293 300 298 305 304 289 249 219 204 200 193 187 187 185 182 179 182 186
279 278 278 284 286 289 285 292 291 289 294 294 304 307 274 217 191 195 198 191 187 185 184 178 178 181 187
288 287 289 287 285 280 281 281 281 288 294 282 294 307 241 189 174 182 194 187 184 183 181 179 176 183 180
283 277 275 281 285 289 291 288 280 274 283 279 283 296 253 198 165 165 169 172 174 176 177 177 181 187 178
266 274 277 281 289 291 292 287 278 272 276 271 271 277 263 209 160 158 160 171 175 173 174 181 187 185 183
274 274 278 288 290 288 288 286 282 276 268 261 258 258 258 211 185 160 163 171 175 173 176 183 182 180 178
281 283 286 287 287 288 288 287 286 279 268 263 248 246 248 213 198 177 172 166 178 176 179 181 182 181 183
281 280 282 284 286 289 285 285 279 277 275 259 257 242 235 209 198 189 173 173 177 178 182 179 181 179 184
281 281 282 285 289 286 281 279 276 272 258 257 256 216 212 202 206 187 183 172 174 178 182 177 176 182 187
283 284 285 287 286 280 278 277 274 270 252 248 225 203 185 176 187 192 181 172 173 173 179 179 174 181 181